User: anonymous   Login
Location: Unspecified
(0.0000°N, 0.0000°E)
Time: 00:39:53
(UTC+00:00)
Language:

Kosmos-2239 - Orbit

View from above orbital plane
View from above orbital plane
View from above satellite
View from above satellite

Ground track
Ground track

The orbit data is extracted from the following two-line orbital elements,

1 22590U 93020A   17206.60456861 +.00000009 +00000-0 -64781-5 0  9995
2 22590 082.9299 032.9506 0023113 004.0959 056.8542 13.75380415220204
Epoch (UTC): 25 July 2017 14:30:34
Eccentricity: 0.0023113
inclination: 82.9299°
perigee height: 963 km
apogee height: 997 km
right ascension of ascending node: 32.9506°
argument of perigee: 4.0959°
revolutions per day: 13.75380415
mean anomaly at epoch: 56.8542°
orbit number at epoch: 22020

The dashed part of the orbit path shows where the satellite is in the earth's shadow,  

DLR